When you browse on this site, cookies collect data to enhance your experience and personalize the content and advertising you see.
Visit our Privacy Policy to learn more. By continuing to use the site, you agree to this use of cookies and data.
  • In Latvia
  • List of Countries
  • For 7 days
  • Water Temperature
  • Weather Map
  • Weather Widgets
  • user-avatar
    Login

    Hourly Weather Kuweit

    Today, 20 September, Friday

    Time Temperature Precipitation Wind Pressure Humidity
    00:00 +39°C° 0 mm 6 mps 753 mmHg 16%
    01:00 +38°C° 0 mm 6 mps 753 mmHg 17%
    02:00 +36°C° 0 mm 7 mps 752 mmHg 18%
    03:00 +35°C° 0 mm 6 mps 752 mmHg 19%
    04:00 +35°C° 0 mm 6 mps 752 mmHg 20%
    05:00 +34°C° 0 mm 6 mps 753 mmHg 21%
    06:00 +34°C° 0 mm 6 mps 753 mmHg 21%
    07:00 +36°C° 0 mm 7 mps 753 mmHg 18%
    08:00 +39°C° 0 mm 7 mps 753 mmHg 16%
    09:00 +41°C° 0 mm 8 mps 753 mmHg 12%
    10:00 +43°C° 0 mm 7 mps 753 mmHg 11%
    11:00 +44°C° 0 mm 7 mps 752 mmHg 10%
    12:00 +46°C° 0 mm 6 mps 752 mmHg 9%
    13:00 +46°C° 0 mm 6 mps 751 mmHg 8%
    14:00 +47°C° 0 mm 5 mps 751 mmHg 7%
    15:00 +48°C° 0 mm 4 mps 750 mmHg 6%
    16:00 +45°C° 0 mm 4 mps 750 mmHg 8%
    17:00 +43°C° 0 mm 3 mps 750 mmHg 9%
    18:00 +42°C° 0 mm 3 mps 751 mmHg 10%
    19:00 +39°C° 0 mm 3 mps 751 mmHg 12%
    20:00 +38°C° 0 mm 3 mps 751 mmHg 15%
    21:00 +36°C° 0 mm 2 mps 751 mmHg 18%
    22:00 +36°C° 0 mm 3 mps 751 mmHg 16%
    23:00 +36°C° 0 mm 3 mps 751 mmHg 14%

    Tomorrow, 21 September, Saturday

    Time Temperature Precipitation Wind Pressure Humidity
    00:00 +36°C° 0 mm 3 mps 751 mmHg 12%
    01:00 +36°C° 0 mm 4 mps 750 mmHg 14%
    02:00 +35°C° 0 mm 4 mps 750 mmHg 16%
    03:00 +35°C° 0 mm 4 mps 750 mmHg 18%
    04:00 +34°C° 0 mm 4 mps 750 mmHg 20%
    05:00 +34°C° 0 mm 3 mps 750 mmHg 22%
    06:00 +33°C° 0 mm 3 mps 751 mmHg 23%
    07:00 +35°C° 0 mm 3 mps 751 mmHg 22%
    08:00 +36°C° 0 mm 3 mps 751 mmHg 20%
    09:00 +37°C° 0 mm 3 mps 752 mmHg 18%
    10:00 +39°C° 0 mm 3 mps 751 mmHg 17%
    11:00 +40°C° 0 mm 3 mps 751 mmHg 15%
    12:00 +42°C° 0 mm 3 mps 751 mmHg 14%
    13:00 +42°C° 0 mm 3 mps 750 mmHg 15%
    14:00 +42°C° 0 mm 3 mps 750 mmHg 16%
    15:00 +42°C° 0 mm 4 mps 749 mmHg 17%
    16:00 +41°C° 0 mm 4 mps 749 mmHg 19%
    17:00 +40°C° 0 mm 4 mps 749 mmHg 21%
    18:00 +38°C° 0 mm 4 mps 749 mmHg 24%
    19:00 +37°C° 0 mm 4 mps 749 mmHg 24%
    20:00 +36°C° 0 mm 4 mps 749 mmHg 25%
    21:00 +36°C° 0 mm 3 mps 750 mmHg 26%
    22:00 +35°C° 0 mm 3 mps 750 mmHg 25%
    23:00 +35°C° 0 mm 3 mps 750 mmHg 24%

    Day after tomorrow, 22 September, Sunday

    Time Temperature Precipitation Wind Pressure Humidity
    00:00 +34°C° 0 mm 3 mps 750 mmHg 22%
    01:00 +34°C° 0 mm 3 mps 750 mmHg 22%
    02:00 +34°C° 0 mm 2 mps 750 mmHg 21%
    03:00 +34°C° 0 mm 2 mps 750 mmHg 21%
    04:00 +34°C° 0 mm 2 mps 750 mmHg 21%
    05:00 +33°C° 0 mm 1 mps 750 mmHg 21%
    06:00 +33°C° 0 mm 1 mps 750 mmHg 20%
    07:00 +36°C° 0 mm 2 mps 751 mmHg 18%
    08:00 +38°C° 0 mm 2 mps 751 mmHg 17%
    09:00 +40°C° 0 mm 2 mps 752 mmHg 15%
    10:00 +41°C° 0 mm 2 mps 752 mmHg 14%
    11:00 +43°C° 0 mm 3 mps 751 mmHg 14%
    12:00 +44°C° 0 mm 3 mps 751 mmHg 14%
    13:00 +44°C° 0 mm 3 mps 751 mmHg 16%
    14:00 +43°C° 0 mm 4 mps 750 mmHg 18%
    15:00 +43°C° 0 mm 4 mps 750 mmHg 20%
    16:00 +42°C° 0 mm 4 mps 750 mmHg 24%
    17:00 +41°C° 0 mm 5 mps 750 mmHg 28%
    18:00 +39°C° 0 mm 5 mps 750 mmHg 32%
    19:00 +39°C° 0 mm 5 mps 750 mmHg 31%
    20:00 +37°C° 0 mm 4 mps 751 mmHg 31%
    21:00 +36°C° 0 mm 4 mps 752 mmHg 30%
    22:00 +36°C° 0 mm 4 mps 752 mmHg 29%
    23:00 +36°C° 0 mm 4 mps 752 mmHg 28%

    23 September, Monday

    Time Temperature Precipitation Wind Pressure Humidity
    00:00 +36°C° 0 mm 4 mps 752 mmHg 27%
    01:00 +35°C° 0 mm 3 mps 752 mmHg 27%
    02:00 +35°C° 0 mm 2 mps 752 mmHg 27%
    03:00 +33°C° 0 mm 1 mps 751 mmHg 26%
    04:00 +33°C° 0 mm 1 mps 752 mmHg 24%
    05:00 +34°C° 0 mm 2 mps 752 mmHg 23%
    06:00 +34°C° 0 mm 3 mps 753 mmHg 21%
    07:00 +36°C° 0 mm 3 mps 753 mmHg 19%
    08:00 +37°C° 0 mm 2 mps 753 mmHg 18%
    09:00 +39°C° 0 mm 2 mps 754 mmHg 17%
    10:00 +41°C° 0 mm 2 mps 753 mmHg 16%
    11:00 +42°C° 0 mm 2 mps 753 mmHg 14%
    12:00 +43°C° 0 mm 2 mps 753 mmHg 13%
    13:00 +43°C° 0 mm 2 mps 752 mmHg 14%
    14:00 +45°C° 0 mm 3 mps 752 mmHg 14%
    15:00 +45°C° 0 mm 3 mps 751 mmHg 14%
    16:00 +43°C° 0 mm 4 mps 751 mmHg 19%
    17:00 +41°C° 0 mm 4 mps 751 mmHg 23%
    18:00 +40°C° 0 mm 4 mps 751 mmHg 27%
    19:00 +38°C° 0 mm 4 mps 752 mmHg 27%
    20:00 +38°C° 0 mm 3 mps 752 mmHg 27%
    21:00 +37°C° 0 mm 2 mps 752 mmHg 27%
    22:00 +37°C° 0 mm 3 mps 752 mmHg 25%
    23:00 +37°C° 0 mm 3 mps 752 mmHg 23%

    24 September, Tuesday

    Time Temperature Precipitation Wind Pressure Humidity
    00:00 +38°C° 0 mm 4 mps 752 mmHg 21%
    01:00 +37°C° 0 mm 4 mps 752 mmHg 20%
    02:00 +37°C° 0 mm 3 mps 752 mmHg 19%
    03:00 +36°C° 0 mm 3 mps 752 mmHg 19%
    04:00 +36°C° 0 mm 3 mps 752 mmHg 20%
    05:00 +35°C° 0 mm 4 mps 752 mmHg 20%
    06:00 +35°C° 0 mm 4 mps 753 mmHg 21%
    07:00 +36°C° 0 mm 3 mps 753 mmHg 19%
    08:00 +38°C° 0 mm 3 mps 754 mmHg 18%
    09:00 +39°C° 0 mm 2 mps 754 mmHg 16%
    10:00 +41°C° 0 mm 2 mps 754 mmHg 15%
    11:00 +43°C° 0 mm 2 mps 753 mmHg 14%
    12:00 +44°C° 0 mm 1 mps 753 mmHg 13%
    13:00 +46°C° 0 mm 2 mps 752 mmHg 12%
    14:00 +47°C° 0 mm 2 mps 752 mmHg 11%
    15:00 +47°C° 0 mm 2 mps 751 mmHg 11%
    16:00 +46°C° 0 mm 2 mps 751 mmHg 12%
    17:00 +43°C° 0 mm 1 mps 751 mmHg 13%
    18:00 +42°C° 0 mm 1 mps 751 mmHg 13%
    19:00 +41°C° 0 mm 2 mps 751 mmHg 13%
    20:00 +42°C° 0 mm 3 mps 751 mmHg 13%
    21:00 +42°C° 0 mm 4 mps 752 mmHg 13%
    22:00 +41°C° 0 mm 4 mps 751 mmHg 14%
    23:00 +40°C° 0 mm 5 mps 751 mmHg 15%

    25 September, Wednesday

    Time Temperature Precipitation Wind Pressure Humidity
    00:00 +40°C° 0 mm 6 mps 751 mmHg 16%
    01:00 +39°C° 0 mm 5 mps 751 mmHg 17%
    02:00 +37°C° 0 mm 5 mps 751 mmHg 17%
    03:00 +37°C° 0 mm 4 mps 751 mmHg 18%
    04:00 +36°C° 0 mm 4 mps 751 mmHg 19%
    05:00 +36°C° 0 mm 4 mps 751 mmHg 19%
    06:00 +36°C° 0 mm 3 mps 752 mmHg 19%
    07:00 +37°C° 0 mm 3 mps 752 mmHg 17%
    08:00 +39°C° 0 mm 2 mps 753 mmHg 16%
    09:00 +41°C° 0 mm 1 mps 753 mmHg 15%
    10:00 +42°C° 0 mm 1 mps 753 mmHg 13%
    11:00 +44°C° 0 mm 1 mps 753 mmHg 12%
    12:00 +45°C° 0 mm 1 mps 752 mmHg 11%
    13:00 +46°C° 0 mm 1 mps 752 mmHg 10%
    14:00 +47°C° 0 mm 1 mps 751 mmHg 10%
    15:00 +48°C° 0 mm 1 mps 751 mmHg 9%
    16:00 +46°C° 0 mm 1 mps 751 mmHg 10%
    17:00 +44°C° 0 mm 1 mps 751 mmHg 11%
    18:00 +42°C° 0 mm 1 mps 751 mmHg 12%
    19:00 +42°C° 0 mm 2 mps 751 mmHg 12%
    20:00 +41°C° 0 mm 2 mps 752 mmHg 12%
    21:00 +40°C° 0 mm 2 mps 752 mmHg 12%
    22:00 +40°C° 0 mm 2 mps 752 mmHg 13%
    23:00 +39°C° 0 mm 2 mps 752 mmHg 14%
    Show more